Wind_Speed
33 32 30 27 28 28 27 27 26 23 22 21 21 20 18 16 15 14 13 12 11 11 10 9 9 8 8 8 8 8 8 7 7 7 7 6 5 5 4 4 4 3 3
40 36 34 32 30 29 29 28 29 27 25 23 23 23 22 20 19 17 16 15 14 13 12 11 10 10 9 9 9 9 8 8 7 7 7 6 6 5 4 4 4 3 3
43 42 39 37 34 33 32 29 29 29 28 27 26 25 25 24 23 21 19 18 17 16 15 14 13 12 11 10 10 9 9 8 8 8 7 7 6 5 5 4 4 4 4
43 44 43 42 39 37 36 34 31 30 30 30 29 28 27 26 26 25 23 22 20 19 17 16 15 14 13 12 11 11 10 10 9 9 8 8 7 7 6 6 5 5 5
41 42 43 43 43 41 39 37 35 34 32 31 29 30 29 28 28 28 27 26 24 22 21 19 18 17 16 15 14 13 12 11 11 10 10 9 9 8 8 7 7 7 7
38 40 42 43 43 43 43 41 40 38 35 33 32 31 31 30 31 31 30 29 28 26 24 23 21 20 19 18 17 16 15 14 13 12 11 11 10 10 9 9 9 9 9
35 37 40 41 42 43 43 43 43 42 40 38 36 35 34 33 33 32 33 32 31 30 29 27 25 24 22 21 19 18 17 16 15 14 13 12 12 11 11 11 10 10 11
30 34 37 40 41 42 42 43 43 43 42 41 40 39 37 36 35 34 34 33 33 33 32 31 29 27 26 24 23 21 20 19 18 17 16 15 14 13 13 12 12 12 12
25 29 33 37 40 42 43 43 44 44 43 42 41 42 41 39 38 36 36 35 35 35 35 34 33 31 29 28 26 25 23 22 21 20 18 17 16 16 15 15 14 14 14
21 24 27 31 35 38 41 43 44 44 44 43 43 42 43 42 41 38 37 36 36 36 37 36 36 35 34 32 30 28 26 25 24 23 21 20 19 18 17 17 16 16 16
17 20 23 27 30 34 37 40 42 44 44 44 44 43 43 43 43 41 39 38 38 38 38 38 37 37 36 34 33 31 29 28 27 25 24 23 22 21 20 19 19 18 18
15 17 19 23 26 30 34 37 40 42 44 45 45 45 44 44 43 44 43 41 39 39 39 40 39 38 38 37 36 34 32 30 29 28 27 26 25 23 22 21 20 20 19
13 14 16 18 22 25 29 33 37 41 43 45 45 45 45 45 43 44 44 43 42 42 41 40 40 39 39 39 37 36 34 32 31 30 29 28 27 25 24 23 22 21 20
13 13 14 15 18 21 24 28 33 37 41 44 45 46 46 46 45 45 45 44 43 43 43 42 40 40 40 40 38 37 36 34 33 32 31 30 29 28 26 25 24 23 21
13 13 13 14 15 18 21 24 27 31 35 39 43 45 46 46 46 46 47 46 45 43 44 43 43 41 39 39 39 39 37 35 34 33 32 31 30 29 28 27 25 24 23
14 14 14 14 15 16 18 21 24 27 31 34 38 42 44 46 46 47 48 48 47 46 45 44 44 43 42 39 39 40 39 37 35 34 32 31 31 30 29 28 27 26 26
17 16 16 16 16 17 18 19 21 24 27 31 34 37 41 44 45 47 48 48 49 49 47 47 46 44 43 40 39 39 40 39 37 36 34 33 32 32 31 30 29 29 27
19 18 18 17 17 17 17 18 20 22 24 27 30 34 37 41 43 45 47 48 49 49 48 49 49 47 45 42 40 40 40 39 38 37 36 35 34 33 32 32 32 30 29
21 20 20 19 18 17 16 17 18 20 22 25 28 31 34 37 40 42 45 46 48 48 48 49 50 49 48 45 42 42 42 42 41 40 38 37 37 36 35 34 32 31 30
23 22 21 21 20 19 18 18 18 19 20 22 24 28 31 33 36 39 42 44 46 47 47 48 49 49 48 47 45 43 43 43 43 42 41 40 40 39 37 36 34 32 30
25 24 23 22 21 20 19 18 18 18 19 20 22 24 27 30 32 34 38 41 44 45 46 47 48 48 47 46 46 45 44 45 44 43 43 43 42 41 39 38 36 33 31
26 25 24 24 23 22 20 19 17 17 18 19 20 22 24 27 29 31 33 36 40 43 44 45 47 47 45 46 47 46 44 44 43 42 41 41 41 41 40 39 36 34 32
27 26 26 26 25 23 21 19 17 16 16 16 18 20 21 23 25 27 29 32 34 37 40 41 43 44 45 45 46 46 44 43 43 41 41 41 40 40 40 38 36 35 33
27 28 27 27 26 25 23 21 17 15 13 13 14 16 18 19 21 23 25 27 29 31 35 38 39 39 41 43 43 43 43 42 41 41 41 42 41 40 38 36 35 33 31
28 28 28 27 27 26 25 22 18 14 12 10 10 12 15 17 18 21 23 25 26 27 30 32 34 36 37 37 38 39 39 39 40 41 41 40 39 38 35 33 32 31 29
28 28 28 28 27 27 26 24 19 15 12 8 6 8 11 13 15 18 19 22 23 25 26 28 30 32 35 35 36 36 37 38 37 37 38 36 35 35 34 32 31 31 29
Wind_Direction
251 250 245 245 242 238 238 239 236 234 234 235 234 233 230 225 220 215 210 206 201 197 193 188 185 181 177 174 172 173 175 174 173 171 170 171 171 167 165 169 178 186 204
252 251 248 246 245 241 240 241 237 236 238 238 236 235 233 229 225 222 219 215 211 207 204 200 196 192 188 185 182 182 183 185 183 180 178 177 178 179 180 183 190 202 216
252 251 249 247 248 245 243 243 241 237 238 239 237 237 235 233 229 227 225 222 219 215 212 210 207 204 201 197 194 193 194 195 195 196 196 197 199 199 201 208 213 223 236
252 251 250 249 248 248 246 244 242 240 240 240 239 237 235 234 232 230 229 227 224 221 219 217 215 213 211 209 206 205 206 207 208 209 211 214 216 219 223 227 231 238 247
251 250 250 250 248 248 248 248 245 242 242 241 240 237 237 235 235 233 231 230 228 226 224 223 222 220 218 217 216 215 216 217 218 219 221 224 227 230 235 238 242 248 254
251 250 249 249 249 249 249 248 248 245 244 243 242 240 239 238 238 236 233 232 231 230 229 227 227 226 224 223 223 223 223 224 225 226 228 231 233 237 240 245 250 256 260
250 248 248 248 247 248 248 248 248 247 246 244 244 243 242 239 239 239 236 233 233 232 232 230 230 230 228 227 227 227 228 229 231 233 235 236 238 242 246 250 255 260 265
252 249 248 247 247 246 246 247 247 247 246 244 243 242 242 239 239 239 237 236 234 233 233 232 231 231 231 230 229 229 230 232 235 238 239 240 243 246 250 254 258 264 268
256 252 249 247 246 246 245 245 245 247 246 245 243 241 241 241 240 238 237 238 236 235 234 233 232 232 233 231 231 232 233 234 236 239 242 245 247 249 252 256 260 265 268
263 256 252 249 247 246 245 245 245 245 245 244 243 242 240 240 241 239 237 237 237 235 234 234 234 233 233 234 234 235 235 235 237 241 244 247 249 250 253 257 259 263 267
275 265 256 251 249 247 246 245 245 244 244 243 242 242 241 240 240 239 238 237 237 236 235 235 235 234 234 234 234 235 236 237 239 242 245 247 249 252 254 257 259 262 265
286 276 265 257 253 250 248 246 245 244 243 242 242 242 241 241 240 239 238 238 238 237 235 235 236 236 235 235 235 235 236 237 239 241 244 246 249 251 253 257 258 262 265
299 288 276 266 260 255 251 248 246 244 243 242 242 241 241 240 239 238 237 236 236 236 235 234 235 236 236 235 236 236 236 237 239 241 243 246 248 249 251 255 257 260 263
313 303 291 278 270 263 257 252 248 246 244 243 242 241 241 240 239 238 237 236 235 235 234 234 235 236 236 236 235 236 237 237 239 241 242 245 246 247 250 252 255 257 259
327 317 307 295 284 273 263 257 252 249 246 244 242 241 240 239 239 239 238 237 235 235 235 234 235 235 236 235 235 234 235 237 239 240 242 244 245 246 247 250 252 255 258
340 329 318 308 297 286 273 264 258 253 249 245 243 241 239 238 238 238 238 237 235 235 235 233 233 233 235 235 234 235 235 236 238 240 241 242 243 245 247 248 250 254 258
346 338 328 317 307 296 284 274 265 257 252 247 244 242 240 239 238 237 237 237 236 236 236 234 232 233 233 233 233 233 234 234 237 239 240 241 243 245 246 248 250 252 255
349 342 335 326 316 306 295 283 271 263 256 250 246 243 241 239 238 237 236 236 237 236 235 235 234 234 233 234 233 233 233 233 237 239 239 240 242 244 246 247 250 251 253
351 345 339 334 326 315 304 292 279 270 261 254 249 245 241 239 238 236 235 235 235 236 235 235 235 235 236 234 234 233 234 234 236 238 238 239 242 244 245 248 248 249 251
355 350 345 340 333 325 314 301 288 277 267 259 253 246 242 240 237 235 234 233 234 235 235 236 236 236 237 234 233 233 234 234 237 237 237 239 241 243 244 246 246 248 250
359 355 350 345 339 332 322 310 296 284 273 264 256 248 243 239 237 235 233 234 234 235 236 237 236 237 237 236 234 233 233 234 235 235 236 238 241 242 244 246 247 247 248
360 358 355 351 346 340 331 321 307 291 279 266 257 251 245 240 237 236 235 233 233 233 234 235 236 236 235 234 234 234 234 233 235 236 237 238 241 241 243 244 245 246 248
2 0 359 357 353 348 342 332 320 305 290 272 259 250 244 241 236 234 233 232 232 231 231 233 233 233 233 233 232 233 234 234 234 235 236 237 238 239 240 241 243 245 247
3 3 1 1 359 356 353 346 336 324 308 284 264 251 244 242 238 233 231 229 230 230 230 230 231 230 232 233 233 233 234 235 236 236 237 237 237 238 239 240 242 243 247
3 4 3 3 3 2 1 359 353 344 330 306 276 255 242 239 237 232 230 227 228 229 228 228 229 229 230 231 230 231 231 234 234 234 234 235 235 235 236 238 241 243 244
2 3 4 5 5 5 6 7 6 0 351 337 301 261 244 238 232 228 228 227 227 226 226 226 227 228 229 230 229 228 230 232 232 232 231 230 231 232 234 236 240 242 243
Height
5857 5858 5860 5862 5864 5865 5867 5870 5872 5874 5876 5878 5880 5882 5884 5886 5887 5888 5889 5890 5892 5893 5894 5895 5896 5897 5898 5899 5900 5901 5903 5903 5904 5905 5906 5907 5907 5908 5908 5909 5909 5910 5910
5849 5852 5854 5856 5858 5859 5861 5864 5866 5868 5871 5873 5875 5878 5880 5882 5884 5885 5887 5888 5890 5891 5892 5894 5895 5896 5897 5898 5900 5901 5902 5903 5904 5905 5906 5906 5907 5908 5908 5909 5909 5909 5909
5840 5843 5846 5848 5851 5853 5855 5857 5860 5862 5865 5867 5870 5872 5875 5878 5880 5882 5884 5885 5887 5888 5890 5892 5893 5895 5896 5897 5898 5900 5901 5902 5903 5904 5905 5906 5906 5907 5907 5908 5908 5908 5909
5831 5833 5837 5840 5843 5845 5848 5851 5854 5856 5859 5861 5864 5867 5869 5872 5875 5877 5880 5882 5884 5885 5887 5889 5891 5892 5894 5895 5897 5898 5900 5901 5902 5903 5904 5905 5905 5906 5906 5907 5907 5907 5908
5821 5824 5827 5831 5834 5837 5840 5843 5847 5849 5852 5855 5857 5861 5863 5866 5869 5872 5874 5877 5879 5882 5884 5886 5888 5889 5891 5893 5895 5896 5898 5899 5900 5901 5902 5903 5904 5905 5905 5905 5906 5906 5906
5812 5815 5818 5821 5825 5828 5832 5835 5839 5842 5845 5848 5851 5854 5857 5860 5862 5865 5868 5871 5874 5877 5879 5882 5884 5886 5888 5890 5892 5893 5895 5897 5898 5899 5900 5901 5902 5903 5903 5904 5904 5904 5904
5805 5807 5810 5813 5816 5820 5823 5827 5830 5834 5837 5841 5844 5847 5850 5853 5856 5859 5861 5865 5868 5871 5874 5877 5879 5882 5884 5886 5888 5890 5892 5894 5895 5897 5898 5899 5900 5900 5901 5902 5902 5902 5902
5797 5799 5802 5804 5808 5811 5814 5818 5821 5825 5828 5832 5836 5839 5842 5846 5849 5851 5854 5858 5861 5865 5868 5871 5874 5877 5879 5882 5884 5886 5888 5890 5892 5893 5895 5896 5897 5898 5898 5899 5899 5899 5900
5791 5792 5794 5796 5799 5802 5805 5808 5812 5815 5819 5823 5826 5830 5834 5838 5841 5844 5847 5850 5854 5858 5861 5864 5867 5871 5873 5876 5879 5881 5884 5886 5888 5890 5891 5892 5893 5894 5895 5896 5896 5896 5897
5785 5786 5787 5788 5790 5793 5796 5799 5803 5806 5810 5813 5817 5821 5825 5829 5832 5835 5839 5842 5846 5849 5853 5857 5860 5864 5867 5870 5873 5876 5878 5881 5883 5885 5887 5888 5889 5890 5891 5892 5892 5893 5893
5780 5780 5780 5781 5783 5785 5787 5790 5793 5796 5800 5803 5807 5811 5815 5819 5823 5827 5831 5835 5838 5841 5845 5849 5853 5856 5860 5863 5867 5870 5872 5875 5878 5880 5882 5883 5885 5886 5887 5888 5888 5889 5889
5776 5775 5775 5775 5776 5778 5779 5781 5784 5786 5789 5793 5797 5801 5805 5810 5814 5818 5822 5826 5829 5833 5836 5840 5845 5849 5852 5856 5860 5863 5866 5869 5871 5874 5876 5878 5880 5881 5882 5883 5884 5884 5885
5773 5771 5770 5770 5770 5770 5772 5773 5775 5777 5780 5783 5787 5791 5795 5800 5804 5809 5813 5817 5820 5824 5828 5832 5836 5840 5844 5848 5852 5856 5859 5862 5865 5868 5870 5872 5874 5876 5877 5878 5879 5880 5880
5769 5767 5766 5765 5764 5764 5764 5765 5766 5768 5770 5773 5777 5781 5785 5790 5794 5798 5803 5807 5811 5815 5819 5824 5828 5831 5835 5840 5844 5848 5851 5855 5858 5861 5863 5866 5868 5870 5871 5873 5874 5874 5875
5767 5764 5762 5761 5759 5758 5758 5758 5758 5759 5761 5764 5767 5771 5775 5779 5784 5788 5793 5797 5802 5806 5811 5815 5819 5823 5827 5831 5836 5839 5844 5847 5850 5853 5856 5859 5861 5863 5865 5867 5868 5869 5870
5765 5762 5759 5757 5755 5753 5752 5751 5751 5752 5753 5755 5757 5761 5764 5768 5773 5778 5782 5787 5791 5796 5801 5805 5809 5814 5818 5822 5827 5831 5835 5839 5842 5846 5849 5852 5854 5857 5859 5860 5862 5863 5864
5763 5760 5756 5753 5751 5748 5746 5745 5744 5744 5745 5746 5748 5751 5754 5758 5762 5767 5771 5776 5781 5786 5791 5795 5800 5804 5809 5813 5818 5822 5827 5831 5835 5838 5842 5845 5847 5849 5851 5853 5855 5856 5857
5761 5757 5753 5750 5747 5744 5741 5739 5738 5737 5738 5738 5740 5742 5745 5748 5752 5756 5761 5766 5770 5776 5781 5785 5790 5794 5799 5804 5809 5813 5818 5822 5826 5830 5834 5837 5839 5842 5844 5846 5848 5849 5850
5760 5755 5751 5746 5742 5739 5736 5733 5732 5731 5730 5731 5731 5733 5735 5738 5742 5746 5750 5755 5760 5765 5770 5775 5780 5785 5789 5794 5799 5804 5809 5813 5818 5822 5825 5828 5831 5834 5836 5838 5840 5842 5843
5759 5754 5748 5743 5739 5734 5731 5728 5726 5724 5723 5723 5723 5724 5726 5729 5732 5736 5740 5745 5749 5755 5759 5764 5769 5775 5779 5784 5790 5795 5800 5804 5809 5813 5816 5820 5823 5825 5828 5830 5832 5834 5835
5758 5752 5746 5741 5736 5731 5726 5722 5719 5717 5716 5716 5716 5716 5718 5720 5723 5726 5730 5735 5740 5745 5749 5754 5760 5765 5770 5775 5781 5786 5790 5795 5799 5803 5808 5811 5814 5817 5819 5822 5824 5825 5827
5757 5751 5745 5739 5733 5727 5722 5717 5714 5711 5709 5709 5709 5709 5711 5713 5715 5719 5722 5726 5730 5735 5740 5745 5750 5755 5761 5766 5771 5776 5780 5785 5790 5795 5799 5802 5805 5808 5811 5813 5815 5817 5819
5756 5750 5743 5737 5730 5724 5718 5713 5708 5705 5703 5702 5702 5703 5704 5706 5708 5711 5714 5717 5721 5725 5731 5736 5741 5746 5752 5757 5762 5767 5771 5776 5781 5786 5789 5792 5796 5799 5802 5804 5807 5809 5811
5756 5749 5742 5735 5729 5722 5716 5710 5705 5701 5698 5696 5696 5697 5699 5700 5702 5705 5708 5711 5714 5718 5723 5728 5733 5738 5742 5747 5752 5758 5762 5767 5771 5776 5780 5784 5787 5790 5793 5796 5798 5801 5803
5756 5749 5742 5735 5728 5722 5715 5708 5703 5698 5695 5693 5692 5693 5694 5696 5698 5700 5703 5705 5708 5711 5715 5719 5724 5729 5734 5739 5744 5749 5754 5758 5762 5766 5771 5775 5778 5781 5785 5788 5790 5793 5795
5756 5749 5743 5736 5729 5722 5715 5709 5703 5698 5694 5691 5690 5690 5691 5692 5694 5696 5699 5701 5704 5707 5710 5713 5717 5721 5726 5731 5736 5741 5746 5751 5755 5759 5763 5767 5770 5773 5777 5780 5783 5786 5789